#datetime,building,power
2022-03-10T00:00:00,hld,6.93
2022-03-10T00:01:00,hld,7.01
2022-03-10T00:02:00,hld,7.06
2022-03-10T00:03:00,hld,6.94
2022-03-10T00:04:00,hld,6.99
2022-03-10T00:05:00,hld,6.98
2022-03-10T00:06:00,hld,6.99
2022-03-10T00:07:00,hld,7.09
2022-03-10T00:08:00,hld,7.11
2022-03-10T00:09:00,hld,7.12
2022-03-10T00:10:00,hld,7.74
2022-03-10T00:11:00,hld,7.08
2022-03-10T00:12:00,hld,7.12
2022-03-10T00:13:00,hld,7.11
2022-03-10T00:14:00,hld,7.11
2022-03-10T00:15:00,hld,7.15
2022-03-10T00:16:00,hld,6.70
2022-03-10T00:17:00,hld,10.35
2022-03-10T00:18:00,hld,10.21
2022-03-10T00:19:00,hld,10.21
2022-03-10T00:20:00,hld,10.19
2022-03-10T00:21:00,hld,10.19
2022-03-10T00:22:00,hld,10.21
2022-03-10T00:23:00,hld,10.19
2022-03-10T00:24:00,hld,6.10
2022-03-10T00:25:00,hld,6.77
2022-03-10T00:26:00,hld,6.61
2022-03-10T00:27:00,hld,6.10
2022-03-10T00:28:00,hld,6.09
2022-03-10T00:29:00,hld,6.09
2022-03-10T00:30:00,hld,6.05
2022-03-10T00:31:00,hld,6.04
2022-03-10T00:32:00,hld,6.07
2022-03-10T00:33:00,hld,6.05
2022-03-10T00:34:00,hld,6.06
2022-03-10T00:35:00,hld,6.05
2022-03-10T00:36:00,hld,6.03
2022-03-10T00:37:00,hld,6.40
2022-03-10T00:38:00,hld,6.45
2022-03-10T00:39:00,hld,6.51
2022-03-10T00:40:00,hld,7.29
2022-03-10T00:41:00,hld,6.65
2022-03-10T00:42:00,hld,6.64
2022-03-10T00:43:00,hld,6.65
2022-03-10T00:44:00,hld,6.65
2022-03-10T00:45:00,hld,6.64
2022-03-10T00:46:00,hld,6.64
2022-03-10T00:47:00,hld,6.68
2022-03-10T00:48:00,hld,6.70
2022-03-10T00:49:00,hld,7.37
2022-03-10T00:50:00,hld,6.70
2022-03-10T00:51:00,hld,15.16
2022-03-10T00:52:00,hld,15.01
2022-03-10T00:53:00,hld,14.89
2022-03-10T00:54:00,hld,14.46
2022-03-10T00:55:00,hld,6.23
2022-03-10T00:56:00,hld,6.21
2022-03-10T00:57:00,hld,6.25
2022-03-10T00:58:00,hld,6.21
2022-03-10T00:59:00,hld,6.20
2022-03-10T01:00:00,hld,6.20
2022-03-10T01:01:00,hld,6.18
2022-03-10T01:02:00,hld,6.21
2022-03-10T01:03:00,hld,6.11
2022-03-10T01:04:00,hld,6.10
2022-03-10T01:05:00,hld,6.10
2022-03-10T01:06:00,hld,6.09
2022-03-10T01:07:00,hld,6.09
2022-03-10T01:08:00,hld,6.09
2022-03-10T01:09:00,hld,6.10
2022-03-10T01:10:00,hld,6.10
2022-03-10T01:11:00,hld,6.11
2022-03-10T01:12:00,hld,6.45
2022-03-10T01:13:00,hld,6.23
2022-03-10T01:14:00,hld,6.24
2022-03-10T01:15:00,hld,6.22
2022-03-10T01:16:00,hld,6.23
2022-03-10T01:17:00,hld,6.21
2022-03-10T01:18:00,hld,6.20
2022-03-10T01:19:00,hld,6.19
2022-03-10T01:20:00,hld,6.18
2022-03-10T01:21:00,hld,6.18
2022-03-10T01:22:00,hld,6.19
2022-03-10T01:23:00,hld,6.21
2022-03-10T01:24:00,hld,6.18
2022-03-10T01:25:00,hld,6.13
2022-03-10T01:26:00,hld,6.31
2022-03-10T01:27:00,hld,6.07
2022-03-10T01:28:00,hld,6.06
2022-03-10T01:29:00,hld,6.08
2022-03-10T01:30:00,hld,6.06
2022-03-10T01:31:00,hld,6.21
2022-03-10T01:32:00,hld,6.21
2022-03-10T01:33:00,hld,6.26
2022-03-10T01:34:00,hld,6.29
2022-03-10T01:35:00,hld,6.27
2022-03-10T01:36:00,hld,6.73
2022-03-10T01:37:00,hld,6.22
2022-03-10T01:38:00,hld,6.20
2022-03-10T01:39:00,hld,6.21
2022-03-10T01:40:00,hld,6.20
2022-03-10T01:41:00,hld,6.87
2022-03-10T01:42:00,hld,6.21
2022-03-10T01:43:00,hld,6.21
2022-03-10T01:44:00,hld,6.21
2022-03-10T01:45:00,hld,6.31
2022-03-10T01:46:00,hld,6.24
2022-03-10T01:47:00,hld,6.08
2022-03-10T01:48:00,hld,6.01
2022-03-10T01:49:00,hld,6.07
2022-03-10T01:50:00,hld,6.41
2022-03-10T01:51:00,hld,5.95
2022-03-10T01:52:00,hld,6.03
2022-03-10T01:53:00,hld,6.03
2022-03-10T01:54:00,hld,6.05
2022-03-10T01:55:00,hld,6.05
2022-03-10T01:56:00,hld,6.00
2022-03-10T01:57:00,hld,6.04
2022-03-10T01:58:00,hld,6.04
2022-03-10T01:59:00,hld,6.04
2022-03-10T02:00:00,hld,6.05
2022-03-10T02:01:00,hld,6.21
2022-03-10T02:02:00,hld,6.17
2022-03-10T02:03:00,hld,6.18
2022-03-10T02:04:00,hld,7.64
2022-03-10T02:05:00,hld,6.17
2022-03-10T02:06:00,hld,6.18
2022-03-10T02:07:00,hld,6.19
2022-03-10T02:08:00,hld,6.21
2022-03-10T02:09:00,hld,6.09
2022-03-10T02:10:00,hld,6.10
2022-03-10T02:11:00,hld,6.09
2022-03-10T02:12:00,hld,6.11
2022-03-10T02:13:00,hld,6.09
2022-03-10T02:14:00,hld,6.08
2022-03-10T02:15:00,hld,6.11
2022-03-10T02:16:00,hld,6.10
2022-03-10T02:17:00,hld,6.81
2022-03-10T02:18:00,hld,6.10
2022-03-10T02:19:00,hld,6.11
2022-03-10T02:20:00,hld,6.04
2022-03-10T02:21:00,hld,6.23
2022-03-10T02:22:00,hld,6.31
2022-03-10T02:23:00,hld,6.33
2022-03-10T02:24:00,hld,6.32
2022-03-10T02:25:00,hld,6.33
2022-03-10T02:26:00,hld,6.33
2022-03-10T02:27:00,hld,6.32
2022-03-10T02:28:00,hld,6.34
2022-03-10T02:29:00,hld,6.31
2022-03-10T02:30:00,hld,6.32
2022-03-10T02:31:00,hld,6.37
2022-03-10T02:32:00,hld,6.37
2022-03-10T02:33:00,hld,6.37
2022-03-10T02:34:00,hld,6.25
2022-03-10T02:35:00,hld,6.25
2022-03-10T02:36:00,hld,6.24
2022-03-10T02:37:00,hld,6.10
2022-03-10T02:38:00,hld,6.11
2022-03-10T02:39:00,hld,6.09
2022-03-10T02:40:00,hld,6.10
2022-03-10T02:41:00,hld,6.10
2022-03-10T02:42:00,hld,6.37
2022-03-10T02:43:00,hld,6.05
2022-03-10T02:44:00,hld,6.00
2022-03-10T02:45:00,hld,6.31
2022-03-10T02:46:00,hld,6.04
2022-03-10T02:47:00,hld,6.03
2022-03-10T02:48:00,hld,6.03
2022-03-10T02:49:00,hld,6.03
2022-03-10T02:50:00,hld,6.56
2022-03-10T02:51:00,hld,6.04
2022-03-10T02:52:00,hld,6.03
2022-03-10T02:53:00,hld,6.03
2022-03-10T02:54:00,hld,6.04
2022-03-10T02:55:00,hld,6.11
2022-03-10T02:56:00,hld,6.09
2022-03-10T02:57:00,hld,6.12
2022-03-10T02:58:00,hld,6.08
2022-03-10T02:59:00,hld,6.12
2022-03-10T03:00:00,hld,6.13
2022-03-10T03:01:00,hld,6.04
2022-03-10T03:02:00,hld,6.53
2022-03-10T03:03:00,hld,6.12
2022-03-10T03:04:00,hld,6.11
2022-03-10T03:05:00,hld,6.13
2022-03-10T03:06:00,hld,6.16
2022-03-10T03:07:00,hld,6.13
2022-03-10T03:08:00,hld,6.29
2022-03-10T03:09:00,hld,6.94
2022-03-10T03:10:00,hld,6.39
2022-03-10T03:11:00,hld,6.36
2022-03-10T03:12:00,hld,6.42
2022-03-10T03:13:00,hld,6.41
2022-03-10T03:14:00,hld,6.43
2022-03-10T03:15:00,hld,6.43
2022-03-10T03:16:00,hld,6.43
2022-03-10T03:17:00,hld,6.84
2022-03-10T03:18:00,hld,6.35
2022-03-10T03:19:00,hld,6.37
2022-03-10T03:20:00,hld,6.37
2022-03-10T03:21:00,hld,6.38
2022-03-10T03:22:00,hld,6.37
2022-03-10T03:23:00,hld,6.36
2022-03-10T03:24:00,hld,6.36
2022-03-10T03:25:00,hld,6.36
2022-03-10T03:26:00,hld,6.20
2022-03-10T03:27:00,hld,6.22
2022-03-10T03:28:00,hld,6.20
2022-03-10T03:29:00,hld,6.22
2022-03-10T03:30:00,hld,6.16
2022-03-10T03:31:00,hld,6.31
2022-03-10T03:32:00,hld,6.23
2022-03-10T03:33:00,hld,6.20
2022-03-10T03:34:00,hld,6.22
2022-03-10T03:35:00,hld,6.22
2022-03-10T03:36:00,hld,6.21
2022-03-10T03:37:00,hld,7.27
2022-03-10T03:38:00,hld,6.19
2022-03-10T03:39:00,hld,6.46
2022-03-10T03:40:00,hld,6.19
2022-03-10T03:41:00,hld,6.19
2022-03-10T03:42:00,hld,6.12
2022-03-10T03:43:00,hld,6.25
2022-03-10T03:44:00,hld,6.57
2022-03-10T03:45:00,hld,6.22
2022-03-10T03:46:00,hld,6.27
2022-03-10T03:47:00,hld,6.49
2022-03-10T03:48:00,hld,6.22
2022-03-10T03:49:00,hld,6.23
2022-03-10T03:50:00,hld,6.23
2022-03-10T03:51:00,hld,6.20
2022-03-10T03:52:00,hld,6.23
2022-03-10T03:53:00,hld,6.23
2022-03-10T03:54:00,hld,6.24
2022-03-10T03:55:00,hld,6.23
2022-03-10T03:56:00,hld,6.23
2022-03-10T03:57:00,hld,6.25
2022-03-10T03:58:00,hld,6.29
2022-03-10T03:59:00,hld,6.33
2022-03-10T04:00:00,hld,7.05
2022-03-10T04:01:00,hld,7.14
2022-03-10T04:02:00,hld,7.18
2022-03-10T04:03:00,hld,7.21
2022-03-10T04:04:00,hld,7.20
2022-03-10T04:05:00,hld,7.22
2022-03-10T04:06:00,hld,7.03
2022-03-10T04:07:00,hld,7.02
2022-03-10T04:08:00,hld,7.05
2022-03-10T04:09:00,hld,7.05
2022-03-10T04:10:00,hld,6.98
2022-03-10T04:11:00,hld,6.99
2022-03-10T04:12:00,hld,6.98
2022-03-10T04:13:00,hld,7.00
2022-03-10T04:14:00,hld,6.91
2022-03-10T04:15:00,hld,6.98
2022-03-10T04:16:00,hld,6.94
2022-03-10T04:17:00,hld,7.81
2022-03-10T04:18:00,hld,7.11
2022-03-10T04:19:00,hld,7.27
2022-03-10T04:20:00,hld,7.21
2022-03-10T04:21:00,hld,7.22
2022-03-10T04:22:00,hld,15.79
2022-03-10T04:23:00,hld,15.62
2022-03-10T04:24:00,hld,15.47
2022-03-10T04:25:00,hld,15.36
2022-03-10T04:26:00,hld,15.27
2022-03-10T04:27:00,hld,7.33
2022-03-10T04:28:00,hld,7.19
2022-03-10T04:29:00,hld,7.19
2022-03-10T04:30:00,hld,7.18
2022-03-10T04:31:00,hld,7.19
2022-03-10T04:32:00,hld,7.17
2022-03-10T04:33:00,hld,7.17
2022-03-10T04:34:00,hld,7.24
2022-03-10T04:35:00,hld,7.25
2022-03-10T04:36:00,hld,7.09
2022-03-10T04:37:00,hld,7.52
2022-03-10T04:38:00,hld,7.19
2022-03-10T04:39:00,hld,7.19
2022-03-10T04:40:00,hld,7.18
2022-03-10T04:41:00,hld,7.19
2022-03-10T04:42:00,hld,7.18
2022-03-10T04:43:00,hld,7.19
2022-03-10T04:44:00,hld,7.15
2022-03-10T04:45:00,hld,7.75
2022-03-10T04:46:00,hld,7.13
2022-03-10T04:47:00,hld,7.13
2022-03-10T04:48:00,hld,7.13
2022-03-10T04:49:00,hld,7.72
2022-03-10T04:50:00,hld,7.27
2022-03-10T04:51:00,hld,7.25
2022-03-10T04:52:00,hld,7.22
2022-03-10T04:53:00,hld,7.24
2022-03-10T04:54:00,hld,7.23
2022-03-10T04:55:00,hld,7.19
2022-03-10T04:56:00,hld,7.18
2022-03-10T04:57:00,hld,7.17
2022-03-10T04:58:00,hld,7.84
2022-03-10T04:59:00,hld,7.24
2022-03-10T05:00:00,hld,7.21
2022-03-10T05:01:00,hld,7.28
2022-03-10T05:02:00,hld,7.99
2022-03-10T05:03:00,hld,7.21
2022-03-10T05:04:00,hld,7.22
2022-03-10T05:05:00,hld,7.21
2022-03-10T05:06:00,hld,7.08
2022-03-10T05:07:00,hld,7.13
2022-03-10T05:08:00,hld,7.07
2022-03-10T05:09:00,hld,7.14
2022-03-10T05:10:00,hld,7.10
2022-03-10T05:11:00,hld,7.08
2022-03-10T05:12:00,hld,7.07
2022-03-10T05:13:00,hld,7.72
2022-03-10T05:14:00,hld,7.06
2022-03-10T05:15:00,hld,7.13
2022-03-10T05:16:00,hld,6.69
2022-03-10T05:17:00,hld,6.82
2022-03-10T05:18:00,hld,7.10
2022-03-10T05:19:00,hld,6.77
2022-03-10T05:20:00,hld,6.77
2022-03-10T05:21:00,hld,6.75
2022-03-10T05:22:00,hld,6.77
2022-03-10T05:23:00,hld,6.81
2022-03-10T05:24:00,hld,6.82
2022-03-10T05:25:00,hld,6.96
2022-03-10T05:26:00,hld,6.88
2022-03-10T05:27:00,hld,6.89
2022-03-10T05:28:00,hld,6.88
2022-03-10T05:29:00,hld,6.88
2022-03-10T05:30:00,hld,6.88
2022-03-10T05:31:00,hld,6.91
2022-03-10T05:32:00,hld,6.78
2022-03-10T05:33:00,hld,6.77
2022-03-10T05:34:00,hld,6.62
2022-03-10T05:35:00,hld,6.60
2022-03-10T05:36:00,hld,6.59
2022-03-10T05:37:00,hld,6.54
2022-03-10T05:38:00,hld,6.59
2022-03-10T05:39:00,hld,6.65
2022-03-10T05:40:00,hld,6.65
2022-03-10T05:41:00,hld,6.65
2022-03-10T05:42:00,hld,6.65
2022-03-10T05:43:00,hld,7.40
2022-03-10T05:44:00,hld,6.90
2022-03-10T05:45:00,hld,6.88
2022-03-10T05:46:00,hld,6.88
2022-03-10T05:47:00,hld,6.96
2022-03-10T05:48:00,hld,6.90
2022-03-10T05:49:00,hld,6.92
2022-03-10T05:50:00,hld,6.92
2022-03-10T05:51:00,hld,6.88
2022-03-10T05:52:00,hld,6.88
2022-03-10T05:53:00,hld,6.85
2022-03-10T05:54:00,hld,6.86
2022-03-10T05:55:00,hld,6.81
2022-03-10T05:56:00,hld,6.80
2022-03-10T05:57:00,hld,6.83
2022-03-10T05:58:00,hld,6.73
2022-03-10T05:59:00,hld,6.77
2022-03-10T06:00:00,hld,7.00
2022-03-10T06:01:00,hld,7.22
2022-03-10T06:02:00,hld,10.76
2022-03-10T06:03:00,hld,12.19
2022-03-10T06:04:00,hld,12.05
2022-03-10T06:05:00,hld,12.07
2022-03-10T06:06:00,hld,12.09
2022-03-10T06:07:00,hld,12.06
2022-03-10T06:08:00,hld,12.04
2022-03-10T06:09:00,hld,12.08
2022-03-10T06:10:00,hld,12.03
2022-03-10T06:11:00,hld,12.02
2022-03-10T06:12:00,hld,8.64
2022-03-10T06:13:00,hld,8.15
2022-03-10T06:14:00,hld,7.92
2022-03-10T06:15:00,hld,7.92
2022-03-10T06:16:00,hld,7.95
2022-03-10T06:17:00,hld,7.92
2022-03-10T06:18:00,hld,7.99
2022-03-10T06:19:00,hld,7.86
2022-03-10T06:20:00,hld,7.87
2022-03-10T06:21:00,hld,7.86
2022-03-10T06:22:00,hld,7.87
2022-03-10T06:23:00,hld,7.86
2022-03-10T06:24:00,hld,8.37
2022-03-10T06:25:00,hld,7.86
2022-03-10T06:26:00,hld,7.84
2022-03-10T06:27:00,hld,7.86
2022-03-10T06:28:00,hld,7.85
2022-03-10T06:29:00,hld,8.39
2022-03-10T06:30:00,hld,7.71
2022-03-10T06:31:00,hld,8.34
2022-03-10T06:32:00,hld,7.77
2022-03-10T06:33:00,hld,7.76
2022-03-10T06:34:00,hld,7.76
2022-03-10T06:35:00,hld,7.77
2022-03-10T06:36:00,hld,7.75
2022-03-10T06:37:00,hld,7.80
2022-03-10T06:38:00,hld,7.78
2022-03-10T06:39:00,hld,7.76
2022-03-10T06:40:00,hld,7.77
2022-03-10T06:41:00,hld,7.91
2022-03-10T06:42:00,hld,7.94
2022-03-10T06:43:00,hld,7.83
2022-03-10T06:44:00,hld,7.80
2022-03-10T06:45:00,hld,7.81
2022-03-10T06:46:00,hld,7.80
2022-03-10T06:47:00,hld,7.68
2022-03-10T06:48:00,hld,7.94
2022-03-10T06:49:00,hld,7.36
2022-03-10T06:50:00,hld,7.34
2022-03-10T06:51:00,hld,8.82
2022-03-10T06:52:00,hld,8.04
2022-03-10T06:53:00,hld,7.54
2022-03-10T06:54:00,hld,7.52
2022-03-10T06:55:00,hld,7.51
2022-03-10T06:56:00,hld,7.47
2022-03-10T06:57:00,hld,7.36
2022-03-10T06:58:00,hld,7.36
2022-03-10T06:59:00,hld,7.37
2022-03-10T07:00:00,hld,7.41
2022-03-10T07:01:00,hld,7.23
2022-03-10T07:02:00,hld,7.23
2022-03-10T07:03:00,hld,7.23
2022-03-10T07:04:00,hld,7.25
2022-03-10T07:05:00,hld,7.23
2022-03-10T07:06:00,hld,7.27
2022-03-10T07:07:00,hld,7.26
2022-03-10T07:08:00,hld,7.28
2022-03-10T07:09:00,hld,7.18
2022-03-10T07:10:00,hld,7.33
2022-03-10T07:11:00,hld,7.34
2022-03-10T07:12:00,hld,7.33
2022-03-10T07:13:00,hld,7.32
2022-03-10T07:14:00,hld,7.40
2022-03-10T07:15:00,hld,7.39
2022-03-10T07:16:00,hld,7.39
2022-03-10T07:17:00,hld,7.37
2022-03-10T07:18:00,hld,8.00
2022-03-10T07:19:00,hld,7.34
2022-03-10T07:20:00,hld,7.36
2022-03-10T07:21:00,hld,7.36
2022-03-10T07:22:00,hld,7.37
2022-03-10T07:23:00,hld,7.37
2022-03-10T07:24:00,hld,8.63
2022-03-10T07:25:00,hld,8.68
2022-03-10T07:26:00,hld,9.44
2022-03-10T07:27:00,hld,9.37
2022-03-10T07:28:00,hld,9.38
2022-03-10T07:29:00,hld,9.68
2022-03-10T07:30:00,hld,9.36
2022-03-10T07:31:00,hld,9.38
2022-03-10T07:32:00,hld,10.10
2022-03-10T07:33:00,hld,9.37
2022-03-10T07:34:00,hld,9.39
2022-03-10T07:35:00,hld,9.38
2022-03-10T07:36:00,hld,9.37
2022-03-10T07:37:00,hld,9.51
2022-03-10T07:38:00,hld,9.50
2022-03-10T07:39:00,hld,9.47
2022-03-10T07:40:00,hld,9.51
2022-03-10T07:41:00,hld,9.66
2022-03-10T07:42:00,hld,9.66
2022-03-10T07:43:00,hld,9.20
2022-03-10T07:44:00,hld,9.25
2022-03-10T07:45:00,hld,10.02
2022-03-10T07:46:00,hld,10.13
2022-03-10T07:47:00,hld,10.13
2022-03-10T07:48:00,hld,10.13
2022-03-10T07:49:00,hld,10.24
2022-03-10T07:50:00,hld,10.32
2022-03-10T07:51:00,hld,10.34
2022-03-10T07:52:00,hld,10.29
2022-03-10T07:53:00,hld,18.70
2022-03-10T07:54:00,hld,19.05
2022-03-10T07:55:00,hld,18.67
2022-03-10T07:56:00,hld,18.78
2022-03-10T07:57:00,hld,10.69
2022-03-10T07:58:00,hld,10.63
2022-03-10T07:59:00,hld,10.54
2022-03-10T08:00:00,hld,10.60
2022-03-10T08:01:00,hld,10.56
2022-03-10T08:02:00,hld,10.59
2022-03-10T08:03:00,hld,10.60
2022-03-10T08:04:00,hld,10.60
2022-03-10T08:05:00,hld,14.67
2022-03-10T08:06:00,hld,14.64
2022-03-10T08:07:00,hld,14.70
2022-03-10T08:08:00,hld,14.74
2022-03-10T08:09:00,hld,14.77
2022-03-10T08:10:00,hld,14.72
2022-03-10T08:11:00,hld,14.81
2022-03-10T08:12:00,hld,14.81
2022-03-10T08:13:00,hld,14.91
2022-03-10T08:14:00,hld,10.88
2022-03-10T08:15:00,hld,10.91
2022-03-10T08:16:00,hld,10.88
2022-03-10T08:17:00,hld,11.18
2022-03-10T08:18:00,hld,11.52
2022-03-10T08:19:00,hld,11.02
2022-03-10T08:20:00,hld,11.00
2022-03-10T08:21:00,hld,11.00
2022-03-10T08:22:00,hld,11.01
2022-03-10T08:23:00,hld,10.97
2022-03-10T08:24:00,hld,10.95
2022-03-10T08:25:00,hld,10.91
2022-03-10T08:26:00,hld,10.85
2022-03-10T08:27:00,hld,10.83
2022-03-10T08:28:00,hld,10.84
2022-03-10T08:29:00,hld,10.82
2022-03-10T08:30:00,hld,10.86
2022-03-10T08:31:00,hld,10.68
2022-03-10T08:32:00,hld,10.68
2022-03-10T08:33:00,hld,10.65
2022-03-10T08:34:00,hld,10.65
2022-03-10T08:35:00,hld,10.62
2022-03-10T08:36:00,hld,10.74
2022-03-10T08:37:00,hld,10.79
2022-03-10T08:38:00,hld,10.80
2022-03-10T08:39:00,hld,10.83
2022-03-10T08:40:00,hld,10.85
2022-03-10T08:41:00,hld,10.67
2022-03-10T08:42:00,hld,10.71
2022-03-10T08:43:00,hld,10.70
2022-03-10T08:44:00,hld,10.90
2022-03-10T08:45:00,hld,10.77
2022-03-10T08:46:00,hld,10.78
2022-03-10T08:47:00,hld,10.77
2022-03-10T08:48:00,hld,11.54
2022-03-10T08:49:00,hld,11.02
2022-03-10T08:50:00,hld,11.01
2022-03-10T08:51:00,hld,11.04
2022-03-10T08:52:00,hld,11.07
2022-03-10T08:53:00,hld,11.07
2022-03-10T08:54:00,hld,11.07
2022-03-10T08:55:00,hld,11.01
2022-03-10T08:56:00,hld,10.90
2022-03-10T08:57:00,hld,10.98
2022-03-10T08:58:00,hld,11.01
2022-03-10T08:59:00,hld,11.01
2022-03-10T09:00:00,hld,11.01
2022-03-10T09:01:00,hld,11.01
2022-03-10T09:02:00,hld,10.86
2022-03-10T09:03:00,hld,10.87
2022-03-10T09:04:00,hld,10.85
2022-03-10T09:05:00,hld,10.91
2022-03-10T09:06:00,hld,11.11
2022-03-10T09:07:00,hld,11.14
2022-03-10T09:08:00,hld,11.11
2022-03-10T09:09:00,hld,11.14
2022-03-10T09:10:00,hld,10.98
2022-03-10T09:11:00,hld,10.94
2022-03-10T09:12:00,hld,10.95
2022-03-10T09:13:00,hld,11.13
2022-03-10T09:14:00,hld,10.89
2022-03-10T09:15:00,hld,10.96
2022-03-10T09:16:00,hld,10.90
2022-03-10T09:17:00,hld,10.82
2022-03-10T09:18:00,hld,10.78
2022-03-10T09:19:00,hld,10.56
2022-03-10T09:20:00,hld,11.24
2022-03-10T09:21:00,hld,11.77
2022-03-10T09:22:00,hld,11.43
2022-03-10T09:23:00,hld,11.54
2022-03-10T09:24:00,hld,11.56
2022-03-10T09:25:00,hld,11.57
2022-03-10T09:26:00,hld,11.52
2022-03-10T09:27:00,hld,11.44
2022-03-10T09:28:00,hld,11.60
2022-03-10T09:29:00,hld,11.74
2022-03-10T09:30:00,hld,11.81
2022-03-10T09:31:00,hld,12.57
2022-03-10T09:32:00,hld,13.33
2022-03-10T09:33:00,hld,13.32
2022-03-10T09:34:00,hld,12.10
2022-03-10T09:35:00,hld,12.20
2022-03-10T09:36:00,hld,12.67
2022-03-10T09:37:00,hld,12.22
2022-03-10T09:38:00,hld,12.23
2022-03-10T09:39:00,hld,12.63
2022-03-10T09:40:00,hld,12.12
2022-03-10T09:41:00,hld,12.14
2022-03-10T09:42:00,hld,12.14
2022-03-10T09:43:00,hld,12.17
2022-03-10T09:44:00,hld,16.20
2022-03-10T09:45:00,hld,16.20
2022-03-10T09:46:00,hld,16.20
2022-03-10T09:47:00,hld,16.18
2022-03-10T09:48:00,hld,16.19
2022-03-10T09:49:00,hld,16.13
2022-03-10T09:50:00,hld,17.15
2022-03-10T09:51:00,hld,17.47
2022-03-10T09:52:00,hld,16.81
2022-03-10T09:53:00,hld,12.54
2022-03-10T09:54:00,hld,13.22
2022-03-10T09:55:00,hld,12.68
2022-03-10T09:56:00,hld,12.64
2022-03-10T09:57:00,hld,12.63
2022-03-10T09:58:00,hld,12.66
2022-03-10T09:59:00,hld,12.61
2022-03-10T10:00:00,hld,12.56
2022-03-10T10:01:00,hld,12.60
2022-03-10T10:02:00,hld,12.64
2022-03-10T10:03:00,hld,12.59
2022-03-10T10:04:00,hld,12.67
2022-03-10T10:05:00,hld,12.60
2022-03-10T10:06:00,hld,12.61
2022-03-10T10:07:00,hld,12.61
2022-03-10T10:08:00,hld,12.56
2022-03-10T10:09:00,hld,12.58
2022-03-10T10:10:00,hld,12.75
2022-03-10T10:11:00,hld,14.08
2022-03-10T10:12:00,hld,14.34
2022-03-10T10:13:00,hld,14.34
2022-03-10T10:14:00,hld,14.35
2022-03-10T10:15:00,hld,12.93
2022-03-10T10:16:00,hld,12.90
2022-03-10T10:17:00,hld,12.89
2022-03-10T10:18:00,hld,12.83
2022-03-10T10:19:00,hld,12.86
2022-03-10T10:20:00,hld,12.88
2022-03-10T10:21:00,hld,12.85
2022-03-10T10:22:00,hld,12.90
2022-03-10T10:23:00,hld,12.86
2022-03-10T10:24:00,hld,12.92
2022-03-10T10:25:00,hld,12.95
2022-03-10T10:26:00,hld,12.89
2022-03-10T10:27:00,hld,12.96
2022-03-10T10:28:00,hld,12.93
2022-03-10T10:29:00,hld,12.95
2022-03-10T10:30:00,hld,12.93
2022-03-10T10:31:00,hld,12.93
2022-03-10T10:32:00,hld,12.94
2022-03-10T10:33:00,hld,12.98
2022-03-10T10:34:00,hld,12.98
2022-03-10T10:35:00,hld,12.94
2022-03-10T10:36:00,hld,12.93
2022-03-10T10:37:00,hld,12.85
2022-03-10T10:38:00,hld,12.88
2022-03-10T10:39:00,hld,12.92
2022-03-10T10:40:00,hld,12.85
2022-03-10T10:41:00,hld,12.82
2022-03-10T10:42:00,hld,12.86
2022-03-10T10:43:00,hld,12.78
2022-03-10T10:44:00,hld,12.79
2022-03-10T10:45:00,hld,12.90
2022-03-10T10:46:00,hld,12.87
2022-03-10T10:47:00,hld,12.93
2022-03-10T10:48:00,hld,12.83
2022-03-10T10:49:00,hld,12.87
2022-03-10T10:50:00,hld,11.71
2022-03-10T10:51:00,hld,11.68
2022-03-10T10:52:00,hld,11.79
2022-03-10T10:53:00,hld,11.75
2022-03-10T10:54:00,hld,11.73
2022-03-10T10:55:00,hld,11.73
2022-03-10T10:56:00,hld,11.73
2022-03-10T10:57:00,hld,11.64
2022-03-10T10:58:00,hld,11.62
2022-03-10T10:59:00,hld,11.93
2022-03-10T11:00:00,hld,11.84
2022-03-10T11:01:00,hld,11.79
2022-03-10T11:02:00,hld,11.85
2022-03-10T11:03:00,hld,11.80
2022-03-10T11:04:00,hld,11.81
2022-03-10T11:05:00,hld,11.83
2022-03-10T11:06:00,hld,11.99
2022-03-10T11:07:00,hld,12.03
2022-03-10T11:08:00,hld,11.91
2022-03-10T11:09:00,hld,11.91
2022-03-10T11:10:00,hld,11.88
2022-03-10T11:11:00,hld,11.90
2022-03-10T11:12:00,hld,11.81
2022-03-10T11:13:00,hld,11.84
2022-03-10T11:14:00,hld,11.70
2022-03-10T11:15:00,hld,11.75
2022-03-10T11:16:00,hld,11.77
2022-03-10T11:17:00,hld,11.66
2022-03-10T11:18:00,hld,11.68
2022-03-10T11:19:00,hld,24.31
2022-03-10T11:20:00,hld,24.19
2022-03-10T11:21:00,hld,25.12
2022-03-10T11:22:00,hld,23.91
2022-03-10T11:23:00,hld,23.77
2022-03-10T11:24:00,hld,15.77
2022-03-10T11:25:00,hld,15.80
2022-03-10T11:26:00,hld,15.73
2022-03-10T11:27:00,hld,11.77
2022-03-10T11:28:00,hld,11.70
2022-03-10T11:29:00,hld,11.72
2022-03-10T11:30:00,hld,11.72
2022-03-10T11:31:00,hld,11.66
2022-03-10T11:32:00,hld,11.72
2022-03-10T11:33:00,hld,11.68
2022-03-10T11:34:00,hld,11.85
2022-03-10T11:35:00,hld,11.83
2022-03-10T11:36:00,hld,10.84
2022-03-10T11:37:00,hld,10.88
2022-03-10T11:38:00,hld,10.86
2022-03-10T11:39:00,hld,10.81
2022-03-10T11:40:00,hld,10.80
2022-03-10T11:41:00,hld,10.80
2022-03-10T11:42:00,hld,10.76
2022-03-10T11:43:00,hld,10.74
2022-03-10T11:44:00,hld,10.82
2022-03-10T11:45:00,hld,10.51
2022-03-10T11:46:00,hld,12.20
2022-03-10T11:47:00,hld,10.84
2022-03-10T11:48:00,hld,10.89
2022-03-10T11:49:00,hld,12.58
2022-03-10T11:50:00,hld,11.05
2022-03-10T11:51:00,hld,11.07
2022-03-10T11:52:00,hld,11.10
2022-03-10T11:53:00,hld,11.19
2022-03-10T11:54:00,hld,11.12
2022-03-10T11:55:00,hld,12.78
2022-03-10T11:56:00,hld,12.74
2022-03-10T11:57:00,hld,11.25
2022-03-10T11:58:00,hld,11.28
2022-03-10T11:59:00,hld,11.18
2022-03-10T12:00:00,hld,12.74
2022-03-10T12:01:00,hld,12.70
2022-03-10T12:02:00,hld,11.28
2022-03-10T12:03:00,hld,11.17
2022-03-10T12:04:00,hld,11.16
2022-03-10T12:05:00,hld,11.22
2022-03-10T12:06:00,hld,11.34
2022-03-10T12:07:00,hld,12.60
2022-03-10T12:08:00,hld,12.64
2022-03-10T12:09:00,hld,14.08
2022-03-10T12:10:00,hld,11.11
2022-03-10T12:11:00,hld,12.58
2022-03-10T12:12:00,hld,11.12
2022-03-10T12:13:00,hld,11.22
2022-03-10T12:14:00,hld,11.17
2022-03-10T12:15:00,hld,11.19
2022-03-10T12:16:00,hld,11.33
2022-03-10T12:17:00,hld,11.12
2022-03-10T12:18:00,hld,11.16
2022-03-10T12:19:00,hld,11.04
2022-03-10T12:20:00,hld,11.19
2022-03-10T12:21:00,hld,11.11
2022-03-10T12:22:00,hld,11.17
2022-03-10T12:23:00,hld,11.04
2022-03-10T12:24:00,hld,11.09
2022-03-10T12:25:00,hld,11.12
2022-03-10T12:26:00,hld,11.12
2022-03-10T12:27:00,hld,11.07
2022-03-10T12:28:00,hld,15.15
2022-03-10T12:29:00,hld,15.08
2022-03-10T12:30:00,hld,14.96
2022-03-10T12:31:00,hld,15.05
2022-03-10T12:32:00,hld,14.58
2022-03-10T12:33:00,hld,14.41
2022-03-10T12:34:00,hld,14.53
2022-03-10T12:35:00,hld,14.40
2022-03-10T12:36:00,hld,14.43
2022-03-10T12:37:00,hld,14.34
2022-03-10T12:38:00,hld,10.40
2022-03-10T12:39:00,hld,10.30
2022-03-10T12:40:00,hld,10.58
2022-03-10T12:41:00,hld,10.51
2022-03-10T12:42:00,hld,10.45
2022-03-10T12:43:00,hld,10.44
2022-03-10T12:44:00,hld,10.41
2022-03-10T12:45:00,hld,10.30
2022-03-10T12:46:00,hld,10.16
2022-03-10T12:47:00,hld,10.23
2022-03-10T12:48:00,hld,10.13
2022-03-10T12:49:00,hld,10.12
2022-03-10T12:50:00,hld,11.49
2022-03-10T12:51:00,hld,10.10
2022-03-10T12:52:00,hld,10.05
2022-03-10T12:53:00,hld,9.81
2022-03-10T12:54:00,hld,9.81
2022-03-10T12:55:00,hld,9.84
2022-03-10T12:56:00,hld,9.67
2022-03-10T12:57:00,hld,9.74
2022-03-10T12:58:00,hld,9.64
2022-03-10T12:59:00,hld,9.75
2022-03-10T13:00:00,hld,9.72
2022-03-10T13:01:00,hld,10.63
2022-03-10T13:02:00,hld,10.70
2022-03-10T13:03:00,hld,10.79
2022-03-10T13:04:00,hld,14.35
2022-03-10T13:05:00,hld,14.82
2022-03-10T13:06:00,hld,14.91
2022-03-10T13:07:00,hld,14.87
2022-03-10T13:08:00,hld,14.82
2022-03-10T13:09:00,hld,14.83
2022-03-10T13:10:00,hld,15.82
2022-03-10T13:11:00,hld,15.92
2022-03-10T13:12:00,hld,11.79
2022-03-10T13:13:00,hld,11.82
2022-03-10T13:14:00,hld,11.59
2022-03-10T13:15:00,hld,11.68
2022-03-10T13:16:00,hld,11.72
2022-03-10T13:17:00,hld,11.68
2022-03-10T13:18:00,hld,11.70
2022-03-10T13:19:00,hld,11.85
2022-03-10T13:20:00,hld,11.95
2022-03-10T13:21:00,hld,13.69
2022-03-10T13:22:00,hld,13.75
2022-03-10T13:23:00,hld,13.75
2022-03-10T13:24:00,hld,12.85
2022-03-10T13:25:00,hld,13.72
2022-03-10T13:26:00,hld,14.70
2022-03-10T13:27:00,hld,12.73
2022-03-10T13:28:00,hld,12.82
2022-03-10T13:29:00,hld,13.43
2022-03-10T13:30:00,hld,13.92
2022-03-10T13:31:00,hld,17.01
2022-03-10T13:32:00,hld,16.94
2022-03-10T13:33:00,hld,17.06